Dewpoint
56 56 55 55 54 54 53 53 53 54 54 55 55 55 55 54 54 53 53 52 52 52 52 52 51 50 50 50 50 49 49 49 49 49 50 50 51 51 51 51 51 51 51 50 50 50 49 45 41 39 44 47 48 48 49 51 51 50 49 50 51 51 53 56 57 57 57 57 57 57 57 57 57 57 57 57 57 57 57 58 58 57 57 57 57 57 58 58 58 58 58 58 58 58 58 58 58 57 57 57 57 57 57
55 55 55 55 54 54 54 53 53 53 54 55 55 55 55 55 54 54 53 53 52 52 52 51 50 50 50 50 49 49 48 48 47 48 48 49 49 50 50 50 50 50 50 49 48 47 47 41 35 33 40 44 46 48 49 50 50 49 48 50 50 52 54 56 57 57 57 57 57 57 57 57 57 57 57 57 57 57 57 57 57 57 57 57 57 57 57 57 58 58 58 58 57 57 57 58 57 57 57 57 57 57 57
54 54 54 54 54 54 54 53 53 53 53 55 55 55 55 55 55 54 54 53 53 52 52 51 50 50 50 49 49 48 48 47 46 46 46 47 47 48 48 48 48 48 48 48 47 46 46 43 36 30 34 39 43 46 48 50 49 47 47 49 50 52 54 56 57 57 57 57 57 57 57 57 56 56 56 56 56 56 56 56 56 56 57 57 57 57 57 57 57 57 57 57 57 57 57 57 57 57 57 56 56 56 56
54 54 54 54 54 55 55 54 53 52 52 54 55 55 55 55 55 54 54 53 53 52 52 51 50 50 50 49 49 48 47 46 46 46 46 46 46 46 46 46 46 46 46 46 46 45 42 42 37 31 30 35 38 42 46 50 50 48 46 47 50 52 55 56 56 56 56 56 56 56 56 56 56 56 56 56 56 56 56 56 56 56 56 56 56 56 56 56 56 56 57 57 57 57 56 56 56 56 56 56 56 56 56
54 54 54 54 54 54 55 54 53 52 52 52 53 54 54 54 54 54 53 53 53 52 52 51 50 50 50 49 49 48 47 46 46 46 45 45 44 44 44 44 43 43 43 44 45 43 36 39 35 29 27 32 35 38 41 47 49 47 45 46 49 53 56 56 56 56 56 56 56 56 56 56 55 55 55 55 55 55 55 55 55 55 55 55 55 55 56 56 56 56 56 56 56 56 56 56 56 56 56 56 56 56 56
54 54 54 54 54 54 54 54 53 52 51 51 51 52 52 53 53 53 53 52 52 52 52 51 50 50 50 49 49 48 47 47 46 46 45 44 44 43 43 42 41 41 41 41 43 42 35 29 25 24 26 29 33 36 35 43 44 43 41 44 49 55 56 55 55 55 55 55 55 56 56 55 55 55 55 55 55 55 55 55 55 55 55 55 55 55 55 55 55 55 55 55 55 55 55 55 55 55 55 55 55 55 55
54 54 54 54 53 53 54 53 53 52 52 51 51 51 51 51 51 51 51 52 52 51 51 51 50 50 50 49 49 48 47 47 46 46 45 45 44 43 42 41 40 39 39 39 40 40 37 26 23 24 24 28 32 34 32 38 41 41 40 43 50 55 55 55 55 55 55 55 55 55 55 55 55 55 55 54 54 54 54 55 55 55 55 55 55 55 55 55 55 55 55 55 55 55 55 55 55 55 55 55 55 55 55
54 54 54 54 54 53 53 53 53 52 52 51 51 51 51 51 51 50 50 50 50 50 50 50 50 50 50 49 49 48 47 47 46 46 46 45 45 44 43 41 40 39 38 38 39 40 40 30 25 23 24 28 32 36 35 33 36 38 37 43 49 55 55 55 55 55 55 55 55 55 55 55 55 54 54 54 54 54 54 54 54 54 54 54 54 54 54 54 54 54 55 55 55 55 55 55 55 55 55 55 55 55 55
55 54 54 54 54 54 53 53 53 52 52 51 51 51 51 51 50 50 50 50 50 50 49 49 49 49 49 49 48 48 47 47 46 46 46 45 45 44 43 42 41 40 39 38 39 40 42 32 25 23 24 27 31 36 39 32 33 35 35 43 49 52 54 54 55 55 55 55 55 54 54 54 54 54 54 54 54 53 53 53 53 53 53 54 54 54 54 54 54 54 54 54 54 54 54 54 54 54 54 54 54 54 54
55 55 54 54 54 54 54 53 53 53 52 52 51 51 51 51 50 50 50 49 49 48 48 48 47 47 47 48 48 47 47 46 46 46 45 45 45 44 43 43 42 41 39 39 39 41 43 31 24 22 25 25 30 35 36 31 32 35 33 43 48 50 51 52 53 54 55 55 55 54 54 53 53 53 53 53 53 53 53 53 52 52 52 53 53 53 53 53 53 53 53 53 54 54 54 54 54 54 54 54 54 54 54
55 55 55 54 54 53 53 53 53 53 53 52 52 51 51 51 50 50 50 49 49 48 48 47 46 46 46 46 46 46 46 46 46 46 45 45 45 44 44 43 43 42 41 40 40 41 44 31 24 22 24 23 28 32 28 28 31 32 31 40 46 49 50 50 51 52 53 54 54 54 54 53 53 52 52 52 52 52 53 52 52 52 52 52 52 52 53 53 53 52 52 53 53 53 53 53 54 53 53 53 53 54 54
56 55 55 54 54 53 53 53 53 53 53 52 52 52 51 51 51 50 50 50 49 49 48 47 46 46 46 46 46 46 46 46 46 46 46 46 45 45 44 43 43 43 42 41 42 44 44 32 25 21 22 23 24 25 25 28 29 28 28 39 45 48 49 50 50 50 51 52 53 54 54 54 53 52 52 52 52 52 52 52 52 52 52 52 52 52 52 52 52 52 52 52 52 52 53 53 53 53 53 53 53 53 53
56 56 55 55 54 54 54 53 53 53 53 52 52 52 51 51 51 51 50 50 50 50 49 49 48 47 47 46 46 46 46 47 47 47 47 46 46 46 45 44 44 44 44 44 46 46 42 33 26 22 20 23 23 24 29 31 30 30 34 41 45 46 48 49 49 50 50 50 51 52 53 54 54 53 53 52 52 52 52 52 52 52 52 52 52 52 52 52 52 52 52 52 52 52 52 53 53 53 53 53 53 53 53
57 56 56 55 55 54 54 54 53 53 53 52 52 52 52 51 51 51 51 51 50 50 50 50 50 49 49 48 48 48 47 47 47 47 47 47 47 47 47 46 46 46 46 46 45 42 37 33 29 24 21 23 22 26 38 36 32 31 39 40 41 43 45 46 48 49 49 49 50 50 51 52 53 54 54 53 53 52 52 52 52 52 52 52 52 52 52 52 52 52 52 52 52 52 52 52 52 53 53 53 53 53 53
57 57 56 56 55 55 55 54 54 53 53 53 52 52 52 52 52 51 51 51 51 51 51 51 51 50 50 50 49 49 49 48 48 48 48 49 49 48 48 48 47 47 46 47 43 38 37 34 30 27 25 25 23 25 33 32 30 31 42 40 39 40 42 44 46 47 47 48 49 49 50 50 51 53 53 54 54 53 53 53 52 52 52 51 51 52 52 52 52 52 52 52 52 52 52 52 52 52 53 53 53 53 53
59 58 57 57 56 55 55 55 54 54 53 53 53 52 52 52 52 52 52 52 52 52 52 52 52 51 51 51 50 50 50 50 50 50 50 50 49 49 49 49 49 48 47 44 41 38 37 35 31 28 30 28 26 26 27 28 30 34 42 40 39 40 41 42 44 45 46 47 47 48 48 49 50 51 52 53 54 54 54 54 53 53 52 52 52 51 52 52 52 52 53 53 53 53 52 52 52 52 52 52 53 53 53
59 59 58 58 57 56 56 55 55 55 54 54 53 53 53 53 53 53 53 53 53 53 53 53 53 53 52 52 52 51 50 50 50 51 51 50 50 50 50 50 50 49 46 42 40 39 38 37 33 31 31 29 28 27 28 28 32 38 41 40 40 41 42 43 44 45 46 46 47 47 48 48 49 50 50 51 52 53 54 54 54 54 54 53 53 52 52 52 52 52 53 53 53 53 53 53 53 52 52 52 52 52 53
60 60 59 59 58 57 57 56 56 55 55 54 54 54 53 53 53 53 53 53 53 54 54 54 54 54 54 53 53 52 48 47 48 49 50 51 51 51 51 51 50 47 42 41 41 40 39 37 35 33 32 32 29 28 31 30 35 41 41 41 41 42 43 44 45 46 46 46 47 47 48 48 48 49 49 50 51 52 53 53 54 54 55 55 54 54 53 53 53 52 53 53 53 54 54 54 54 53 52 52 52 52 52
60 60 60 59 59 58 58 57 57 56 56 55 55 54 54 54 54 54 54 54 54 54 54 54 54 55 55 54 53 51 46 45 45 46 47 49 51 52 50 50 48 44 41 41 41 40 39 39 37 36 34 33 31 30 34 33 37 41 41 41 42 43 44 45 46 46 47 47 48 48 48 48 48 48 49 49 50 51 52 53 53 54 55 55 55 55 55 54 54 54 53 53 54 54 54 54 54 54 54 53 53 53 53
60 60 60 59 59 58 58 58 57 57 56 56 56 55 55 55 55 55 54 54 55 55 55 55 55 55 56 54 51 48 45 44 45 45 45 46 47 49 48 47 45 43 42 41 41 41 40 40 39 38 36 34 33 33 35 35 38 42 41 42 43 44 45 46 46 47 48 48 49 49 49 49 49 48 48 49 50 50 51 52 52 53 54 55 55 55 55 55 55 55 55 54 54 54 54 54 54 55 54 54 54 54 53
57 57 58 58 58 58 57 56 56 56 56 57 56 55 53 55 55 56 55 55 55 55 56 57 55 52 52 51 49 46 45 45 45 45 46 45 45 45 45 45 44 44 43 41 41 41 41 41 40 39 37 35 33 33 35 38 41 43 43 43 43 45 46 46 47 48 49 49 49 50 50 50 49 49 49 49 49 50 50 51 51 52 53 54 54 55 55 56 56 56 55 55 55 55 55 55 55 55 55 55 55 55 54
55 55 55 55 55 55 55 54 54 54 55 57 55 52 50 52 53 54 56 54 53 53 54 55 52 49 49 49 47 46 46 46 46 46 46 46 45 45 45 44 44 44 43 41 41 42 42 41 41 39 37 36 34 32 33 40 43 44 44 44 44 45 46 47 48 49 49 50 50 50 50 50 50 50 49 49 49 49 50 50 51 51 52 53 54 54 55 55 56 56 56 56 55 55 55 55 55 55 55 55 55 55 55
54 54 53 53 53 53 53 52 52 52 52 56 54 50 48 49 50 50 52 50 49 49 49 50 50 49 49 48 47 47 46 47 47 47 47 46 46 45 45 44 44 44 43 42 42 42 42 41 41 39 38 37 34 33 33 41 44 45 45 44 45 45 46 47 48 49 50 50 50 50 51 51 51 51 50 50 50 50 50 50 50 51 51 52 53 54 54 55 55 56 56 56 56 56 56 56 55 55 55 56 56 55 55
54 53 53 53 53 52 52 51 51 51 50 54 52 50 49 49 49 49 48 48 48 47 47 48 48 49 49 48 47 47 47 47 49 49 49 47 46 46 45 44 43 43 43 42 42 42 42 41 41 39 38 37 35 34 34 41 44 45 45 45 45 46 46 47 48 49 50 50 51 51 51 52 52 52 51 51 51 50 50 50 50 51 51 52 53 53 54 55 55 55 55 56 56 57 56 56 56 56 56 56 56 56 56
54 54 53 53 53 53 52 51 51 51 50 51 51 50 50 49 49 48 48 48 48 47 47 47 48 49 48 47 47 47 47 47 47 48 47 47 46 45 44 43 43 43 43 42 42 42 42 41 40 39 38 37 35 34 35 41 44 45 45 45 45 46 46 47 48 49 50 50 51 51 52 52 52 52 52 52 52 52 51 51 51 51 52 52 53 53 54 54 55 55 55 55 56 56 57 57 57 57 57 56 56 56 56
54 54 54 53 53 52 52 51 51 51 51 50 50 50 50 49 49 48 48 48 47 47 47 47 47 47 47 47 46 46 46 46 46 46 46 46 45 45 44 43 42 42 42 42 42 41 41 41 40 39 38 37 35 34 35 41 44 45 46 45 46 46 46 47 48 49 50 50 51 51 52 52 53 53 53 53 53 53 53 53 53 52 52 53 53 53 54 54 55 55 55 55 55 56 56 57 57 57 57 57 57 57 57
54 54 53 52 52 51 51 51 51 51 51 50 50 50 50 50 49 49 48 48 47 46 46 46 46 46 46 46 46 46 46 46 46 45 45 44 44 44 43 42 41 41 41 41 41 41 41 40 39 38 37 36 35 34 33 39 43 45 45 46 46 46 47 47 48 49 50 50 51 51 52 52 53 53 53 54 54 54 54 54 54 54 54 53 53 54 54 54 55 55 55 55 55 55 56 56 57 57 57 57 57 57 57
53 53 52 51 51 50 50 50 50 50 51 50 49 49 50 49 49 49 49 48 47 46 46 45 45 45 45 45 45 45 45 45 44 44 44 43 43 42 43 42 41 41 40 40 40 40 40 39 38 37 37 36 35 34 32 36 40 44 45 46 46 46 47 48 48 49 50 50 51 52 52 52 53 53 54 54 54 55 55 55 55 55 55 55 54 54 54 54 55 55 55 55 55 55 55 56 56 56 57 57 57 58 58
52 52 51 50 50 50 50 50 50 51 52 51 50 49 49 49 49 49 49 48 47 46 46 45 45 44 43 43 43 43 43 43 42 42 41 41 40 40 40 40 39 39 38 38 38 38 38 37 37 36 36 35 35 34 33 34 39 43 45 46 46 47 47 48 48 49 50 50 51 52 52 52 53 53 54 54 54 55 55 55 55 55 55 55 55 55 55 55 55 55 55 55 55 55 55 55 56 56 56 57 57 58 58
51 51 50 49 49 49 50 50 51 52 52 51 50 50 50 49 49 49 49 48 48 46 46 45 44 43 42 42 41 41 42 43 42 41 39 38 37 37 36 36 36 36 35 35 35 36 36 35 35 35 34 34 34 34 34 33 38 43 44 46 46 47 47 48 48 49 50 50 51 52 52 52 53 53 54 54 54 55 55 55 56 56 56 56 56 55 55 55 55 55 55 55 55 55 55 55 56 56 56 57 57 57 58
50 50 50 49 49 49 50 50 50 51 51 51 50 50 50 50 50 49 49 49 48 47 46 46 45 44 43 43 43 43 43 44 43 42 41 40 38 37 36 36 35 35 34 34 34 34 34 34 33 33 33 33 33 33 33 33 36 41 44 45 46 47 47 48 48 49 50 50 51 52 52 52 53 53 53 54 54 55 55 55 56 56 56 56 56 56 56 56 56 56 55 55 55 55 55 55 55 56 56 56 57 57 57
50 50 49 49 49 49 50 50 50 50 50 50 50 50 50 50 49 49 49 48 48 48 47 47 47 47 46 46 45 45 44 45 45 44 43 42 41 41 40 40 39 38 37 37 37 37 36 35 35 34 34 34 34 34 33 33 34 37 42 45 46 46 47 48 48 49 50 50 51 51 52 52 53 53 53 54 54 54 55 55 55 56 56 56 56 56 56 57 56 56 56 56 55 55 55 55 55 56 56 56 56 56 57
51 51 50 50 50 49 49 50 50 50 50 50 50 50 49 49 49 49 49 48 48 48 48 48 48 47 47 47 46 45 43 43 44 44 43 43 42 42 42 41 41 41 41 40 40 39 39 38 38 37 37 36 35 35 35 35 34 34 39 43 45 46 47 47 48 49 49 50 50 51 52 52 52 53 53 53 54 54 54 55 55 55 55 55 56 56 56 56 57 57 57 56 56 56 56 56 56 56 56 56 56 56 56
51 51 51 51 51 50 50 50 50 50 50 50 50 50 49 49 48 48 48 48 47 46 46 46 46 46 45 46 45 44 43 42 42 43 43 43 42 42 41 41 41 41 41 41 41 41 41 41 40 40 39 38 37 37 37 37 36 36 36 40 43 46 46 47 48 48 49 49 50 50 51 52 52 52 53 53 54 54 54 54 55 55 55 55 55 55 56 56 56 56 57 57 57 56 56 56 56 56 56 56 56 56 56
52 52 51 51 51 51 50 50 50 50 50 50 50 50 49 48 48 48 47 47 47 46 45 45 44 44 43 43 43 43 42 41 41 41 42 42 42 41 41 41 42 42 42 41 41 41 41 41 41 41 40 40 39 39 38 38 38 38 37 41 44 46 47 47 48 48 48 49 50 50 50 51 52 52 52 53 53 53 54 54 54 54 55 55 55 55 55 55 56 56 56 56 56 56 57 57 56 56 56 56 56 56 56
52 51 51 51 51 51 52 51 51 51 50 50 50 50 49 49 49 48 48 48 48 48 47 46 46 45 44 44 44 43 43 43 42 42 42 42 42 41 41 41 41 41 42 42 42 42 41 41 41 41 41 41 41 41 40 40 40 40 40 41 42 44 45 46 46 46 47 48 48 49 50 50 51 51 52 52 52 53 53 53 53 54 54 54 54 55 55 55 55 55 55 56 56 56 56 57 57 57 57 56 56 56 56
50 50 50 50 50 50 51 51 51 51 51 50 50 50 49 49 49 49 49 48 48 48 48 48 48 48 48 46 46 46 46 45 45 44 44 44 43 43 42 43 42 42 43 43 43 43 43 43 42 42 42 42 42 41 41 41 41 41 41 41 41 41 41 41 42 44 46 47 47 48 49 50 50 50 51 51 51 52 52 52 53 53 53 54 54 54 54 54 55 55 55 55 55 55 56 56 56 56 57 57 56 56 56
50 50 50 50 50 50 50 51 51 51 51 50 50 50 50 49 49 49 49 49 48 48 48 48 48 48 48 46 46 46 46 45 45 45 45 45 45 45 45 45 44 44 44 44 44 44 44 44 43 43 43 43 42 42 42 42 42 41 41 41 41 41 41 40 40 41 43 45 46 47 47 48 49 49 50 50 50 51 51 51 52 52 52 53 53 53 54 54 54 54 55 55 55 55 55 55 56 56 56 56 56 57 56
51 51 51 51 51 51 51 51 51 51 51 51 50 50 50 49 49 49 48 48 48 48 48 48 47 46 46 45 44 44 46 45 44 44 44 45 45 45 45 45 45 45 45 45 45 44 44 44 44 44 43 43 43 43 42 42 42 42 41 41 41 41 41 40 40 40 40 41 43 45 46 47 47 48 49 49 50 50 50 50 51 51 51 52 52 53 53 53 53 54 54 54 54 55 55 55 55 55 56 56 56 56 56
52 52 52 52 52 52 52 52 52 52 51 51 50 50 50 49 49 49 48 48 48 48 48 47 47 46 46 46 44 43 44 44 43 43 43 43 44 44 45 45 45 45 45 45 45 44 44 44 43 43 43 43 43 43 43 42 42 42 41 41 41 41 41 41 41 40 39 39 40 41 45 46 46 47 48 48 49 49 49 50 50 50 50 51 51 52 52 52 53 53 53 54 54 54 54 55 55 55 55 55 55 56 56
51 51 52 52 52 52 52 52 52 51 51 51 50 50 50 49 49 49 49 48 48 47 47 47 47 47 46 46 45 44 43 42 42 42 42 42 43 43 43 44 44 44 44 45 45 44 44 43 43 43 43 43 43 42 42 42 42 41 41 41 41 41 41 41 42 42 40 39 38 39 42 45 46 46 47 47 48 48 49 49 49 49 49 50 50 50 51 52 52 52 53 53 53 54 54 54 55 55 55 55 55 55 55
49 50 50 50 50 50 50 50 51 51 50 50 50 50 50 49 49 48 49 48 48 47 46 46 46 46 46 45 44 43 42 42 41 41 41 41 41 41 41 42 42 42 43 44 44 43 43 43 43 42 42 42 42 41 41 41 41 41 41 41 40 41 41 42 42 41 40 40 39 39 39 43 45 46 46 46 47 48 48 48 48 48 48 49 49 50 50 51 51 52 52 53 53 53 54 54 54 54 54 55 55 55 55
48 48 48 49 49 49 48 49 49 49 49 50 50 50 49 49 48 47 47 47 46 46 45 44 43 43 44 44 43 42 42 42 41 41 41 41 41 41 41 41 41 41 42 42 42 42 42 42 42 42 43 42 41 41 41 41 41 40 40 40 40 40 40 41 40 40 39 39 38 38 37 40 42 45 45 46 46 46 47 47 47 47 47 48 48 49 50 50 50 51 51 52 52 53 53 53 53 54 54 54 54 54 55
48 48 47 47 47 47 46 47 47 46 46 47 47 47 47 46 46 45 45 44 45 45 44 42 41 42 42 44 44 43 43 43 42 42 41 41 41 41 41 41 41 42 41 41 41 41 41 41 42 43 43 42 41 41 41 40 40 40 40 39 39 39 39 39 39 38 38 38 37 37 37 37 38 41 43 44 45 46 46 46 46 46 46 47 47 48 49 49 50 50 50 51 51 52 52 53 53 53 53 54 54 54 54
48 47 46 46 46 45 45 46 45 45 45 45 45 44 44 43 43 44 43 42 43 44 44 42 41 41 41 42 43 44 43 43 43 42 41 41 41 41 41 42 42 42 42 42 42 42 42 42 43 43 42 41 41 41 41 41 41 40 40 39 39 39 38 38 38 38 37 37 37 37 36 35 35 36 37 39 40 41 42 44 45 45 46 46 46 47 48 48 48 49 50 50 50 51 51 52 52 52 53 53 53 53 53
46 45 46 45 44 44 44 43 44 45 44 44 43 43 43 42 43 44 43 41 41 42 43 42 41 41 41 41 42 42 42 42 42 42 43 41 41 41 41 42 43 43 42 42 42 42 42 43 43 42 41 41 41 41 40 41 41 41 39 39 38 38 38 38 37 37 37 37 36 36 35 35 34 34 34 35 35 36 37 41 42 43 44 45 46 46 47 47 47 48 49 49 50 50 51 51 51 52 52 52 52 53 53
46 45 46 45 44 43 42 42 43 44 44 44 44 43 43 43 43 43 43 42 42 42 43 42 41 41 42 44 43 41 41 41 41 41 42 41 41 41 43 43 43 42 42 42 42 42 42 42 41 41 41 41 41 40 40 40 40 39 38 38 37 37 37 37 37 37 37 37 36 36 35 35 34 34 34 34 34 34 34 37 40 42 43 44 45 45 46 46 46 46 47 48 49 50 50 50 50 51 51 52 52 52 52
46 45 45 44 43 42 42 41 42 43 43 44 44 44 44 43 43 43 42 43 43 43 45 45 43 41 42 42 41 40 39 39 39 40 41 40 40 40 41 41 41 41 41 41 41 41 42 41 41 40 40 40 39 39 39 38 38 38 37 37 37 37 36 36 36 36 36 36 36 35 35 35 34 34 34 34 34 34 33 34 37 40 41 42 43 44 44 44 45 45 46 47 48 49 49 50 50 50 51 51 51 52 52
46 46 43 42 42 42 43 41 42 44 43 44 45 44 43 42 42 42 42 42 42 41 42 44 45 43 41 41 41 40 40 38 38 38 40 39 40 41 40 39 39 39 40 40 40 41 42 41 40 39 39 38 38 38 37 37 37 37 36 37 36 35 35 35 35 35 35 35 35 35 35 34 34 34 33 34 33 33 33 33 34 35 38 41 41 42 43 43 43 44 45 46 47 48 48 49 49 50 50 50 51 51 51
43 43 43 42 42 42 43 41 41 42 42 43 44 43 41 41 42 43 43 41 40 40 41 42 43 44 42 41 41 41 41 37 37 38 40 39 39 40 40 40 39 39 38 39 39 39 40 39 38 38 38 37 37 37 37 36 36 35 35 35 35 34 34 34 34 34 34 34 34 34 34 33 33 33 33 33 33 33 32 33 32 33 35 36 38 39 40 41 42 43 43 44 45 46 47 48 48 49 49 50 50 50 51
42 43 42 42 42 42 42 41 41 42 42 44 44 43 42 42 43 43 41 40 39 39 42 43 42 41 43 42 41 41 40 37 38 40 40 39 38 38 39 39 39 39 38 38 38 38 39 38 37 37 37 36 36 36 35 35 34 34 34 34 34 33 33 33 33 33 33 33 33 33 33 32 32 32 32 32 32 32 32 32 32 32 32 32 33 34 35 37 39 41 42 43 43 44 45 46 47 48 48 49 50 50 50
41 42 42 42 42 42 41 41 41 42 46 45 43 41 40 39 40 40 40 40 39 39 41 42 43 42 41 41 41 40 37 37 38 40 41 39 37 36 32 37 38 37 37 36 36 37 37 36 36 36 36 35 35 35 34 34 34 33 33 33 33 33 33 33 33 33 33 33 32 32 32 32 31 31 31 31 31 31 31 32 32 32 32 32 32 33 34 36 38 40 41 42 43 43 44 45 46 47 48 48 49 50 50
41 41 41 42 42 42 41 41 41 41 44 43 42 42 41 41 41 40 40 41 40 39 40 41 41 41 41 41 41 41 40 38 38 39 42 40 38 36 32 35 36 36 36 36 35 35 34 32 32 32 32 33 33 33 33 33 33 33 33 33 33 33 33 33 33 33 33 32 32 32 32 31 31 31 30 30 30 30 30 30 30 31 31 31 31 32 32 35 38 40 41 41 42 43 43 44 46 46 47 48 48 49 50
40 40 41 41 42 41 41 41 41 40 40 42 42 42 41 41 41 41 41 41 41 41 41 42 42 41 41 41 40 40 41 40 38 37 38 39 39 38 37 36 35 33 30 32 33 32 31 30 30 31 31 32 32 32 33 33 33 32 32 32 32 32 32 33 33 32 32 32 32 32 32 32 31 31 30 29 29 29 29 29 29 30 31 31 31 31 31 33 36 39 40 41 41 42 43 44 45 46 46 47 48 49 49
40 40 40 41 41 41 42 41 41 41 40 41 41 41 41 41 41 41 41 41 41 41 41 41 41 41 41 40 40 40 40 41 40 37 37 37 39 39 37 37 38 37 31 30 31 32 31 31 32 33 34 32 32 32 32 32 32 33 34 34 34 33 32 32 32 32 32 32 32 32 32 32 31 31 30 29 29 29 29 29 29 29 29 30 31 32 33 35 37 37 38 39 40 41 42 43 44 45 46 47 47 48 49
40 39 39 39 40 41 41 40 40 40 39 40 41 41 41 41 41 40 40 40 39 39 40 41 40 39 40 41 40 40 40 40 37 36 37 36 38 41 40 37 37 37 36 35 33 32 32 34 34 34 34 32 32 32 31 32 31 32 35 36 36 34 33 33 32 32 32 32 32 32 32 32 32 31 30 30 29 29 29 29 29 29 29 29 30 31 32 32 32 33 34 35 37 39 41 42 43 44 46 46 47 48 49
39 39 39 39 39 39 39 40 39 39 39 40 41 41 41 41 40 39 39 39 39 39 39 40 40 39 38 40 40 40 39 39 41 41 39 37 38 40 39 39 39 38 37 36 35 35 35 36 35 34 33 33 33 33 32 32 31 31 32 33 33 33 34 33 33 32 32 32 32 32 32 33 32 31 31 30 30 30 30 29 29 29 30 30 30 30 30 30 31 32 32 33 34 35 39 41 43 44 45 46 47 48 49
38 39 38 37 37 37 38 39 39 39 39 41 41 40 40 40 40 40 40 39 39 39 38 39 40 40 38 38 39 39 39 39 39 40 41 38 37 37 37 39 40 40 40 39 38 38 37 37 36 35 33 34 34 34 33 32 32 31 31 31 32 32 32 32 32 32 32 31 32 32 32 32 32 31 31 30 30 31 30 30 30 30 30 29 29 30 30 30 32 33 32 33 34 36 39 41 43 44 45 46 47 48 48
37 37 37 37 37 37 37 37 38 38 39 40 40 40 39 39 39 39 39 39 40 40 38 39 40 41 41 39 39 39 38 38 39 39 39 37 36 35 37 37 38 39 40 40 39 38 37 37 36 35 35 33 33 33 34 33 32 32 32 31 31 31 31 31 31 31 31 31 31 31 31 31 31 31 31 30 30 30 30 30 30 30 30 30 30 30 31 33 34 35 36 38 39 39 40 41 43 44 46 46 47 48 49
36 36 36 36 36 36 37 37 37 37 38 39 39 39 38 38 38 38 38 39 40 41 40 39 39 39 41 40 39 39 38 39 39 39 38 38 37 36 36 36 36 37 39 39 38 37 36 37 37 36 36 34 33 33 33 33 33 33 32 32 32 32 31 31 31 31 31 31 31 31 30 30 31 31 30 30 30 30 31 30 30 31 30 30 30 31 31 32 32 34 36 37 39 40 41 42 43 45 46 46 47 48 49
36 36 37 37 36 36 36 37 37 37 37 39 39 39 38 38 38 38 38 38 38 39 39 38 38 38 40 39 39 39 39 38 38 38 38 37 37 37 38 38 37 37 38 38 37 36 35 37 37 36 36 36 35 34 33 33 33 33 33 32 32 32 31 31 31 31 31 31 31 31 31 31 30 30 30 30 30 30 31 31 31 31 31 31 31 31 32 31 31 31 32 34 37 39 40 41 43 44 46 46 47 48 48